Location: ???????
(55.4362°N, 38.1183°E)
Time: 15:53:08
(UTC+00:00)

FALCON 9 DEB - Pass Details

Date: 31 October 2021
Orbit: 344 x 356 km, 53.0° (Epoch: 29 November)

Event Time Altitude Azimuth Distance (km) Brightness Sun altitude
Rises 16:59:06 0° 260° (W) 2,184 7.7 -27.0°
Reaches altitude 10° 17:01:07 10° 255° (WSW) 1,344 6.3 -27.2°
Enters shadow 17:01:28 13° 254° (WSW) 1,203 6.0 -27.3°
